Anniston, AL

12:28 PM CDT on August 18, 2017 (GMT -0500)
Anniston Metro

Weather History for KANB - May, 2014

Change the Weather History Date:

Thursday, May 8, 2014

  Actual Average Record
Temperature  
Mean Temperature 73 °F 68 °F  
Max Temperature 87 °F 79 °F 92 °F (1986)
Min Temperature 58 °F 56 °F 39 °F (1951)
Cooling Degree Days 6    
Growing Degree Days 20 (Base 50)    
Moisture  
Dew Point 59 °F    
Average Humidity 65    
Maximum Humidity 93    
Minimum Humidity 37    
Precipitation  
Precipitation 0.00 in 0.15 in 2.92 in (1969)
Month to date precipitation 0.00 1.16  
Year to date precipitation 20.42 19.83  
Sea Level Pressure  
Sea Level Pressure 30.12 in    
Wind  
Wind Speed 5 mph (SSE)    
Max Wind Speed 15 mph    
Max Gust Speed 21 mph    
Visibility 10 miles    
Events      
T = Trace of Precipitation, MM = Missing Value Source: NWS Daily Summary

Daily Weather History Graph

Daily Weather History Graph

Search for Another Location

Airport or City:

Trip Planner

Search our weather history database for the weather conditions in past years. The results will help you decide how hot, cold, wet, or windy it might be!

Date:

Astronomy

May. 08, 2014 Rise Set
Actual Time 5:48 AM CDT 7:31 PM CDT
Civil Twilight 5:21 AM CDT 7:58 PM CDT
Nautical Twilight 4:48 AM CDT 8:31 PM CDT
Astronomical Twilight 4:14 AM CDT 9:06 PM CDT
Moon 1:49 PM CDT (5/8) 2:00 AM CDT (5/8)
Length of Visible Light 14h 37m
Length of Day
13h 43m
Waxing Gibbous, 65% of the Moon is Illuminated
May 8
Waxing Gibbous
May 14
Full
May 21
Last Quarter
May 28
New
Jun 5
First Quarter

Hourly Weather History & Observations

Time (CDT) Temp. Heat Index Dew Point Humidity Pressure Visibility Wind Dir Wind Speed Gust Speed Precip Events Conditions
12:53 AM 62.1 °F - 57.9 °F 86% 30.09 in 10.0 mi Calm Calm - N/A   Clear
2:53 AM 60.1 °F - 57.0 °F 90% 30.10 in 10.0 mi East 3.5 mph - N/A   Clear
3:53 AM 59.0 °F - 55.9 °F 90% 30.11 in 10.0 mi Calm Calm - N/A   Clear
4:53 AM 59.0 °F - 55.9 °F 90% 30.13 in 8.0 mi East 3.5 mph - N/A   Clear
5:53 AM 57.9 °F - 55.0 °F 90% 30.13 in 7.0 mi Calm Calm - N/A   Clear
6:53 AM 60.1 °F - 57.0 °F 90% 30.16 in 8.0 mi East 3.5 mph - N/A   Clear
7:53 AM 64.9 °F - 57.9 °F 78% 30.18 in 10.0 mi East 4.6 mph - N/A   Clear
8:53 AM 71.1 °F - 61.0 °F 70% 30.17 in 10.0 mi ENE 3.5 mph - N/A   Clear
10:53 AM 81.0 °F 81.6 °F 60.1 °F 49% 30.18 in 10.0 mi WSW 9.2 mph - N/A   Clear
11:53 AM 82.9 °F 82.6 °F 57.9 °F 42% 30.17 in 10.0 mi SSW 8.1 mph - N/A   Clear
1:53 PM 84.9 °F 83.7 °F 55.9 °F 37% 30.13 in 10.0 mi SSW 11.5 mph 17.3 mph N/A   Clear
2:53 PM 84.9 °F 83.9 °F 57.0 °F 38% 30.10 in 10.0 mi South 5.8 mph - N/A   Partly Cloudy
4:53 PM 84.0 °F 83.8 °F 59.0 °F 43% 30.08 in 10.0 mi SSW 5.8 mph - N/A   Partly Cloudy
5:53 PM 82.9 °F 83.2 °F 60.1 °F 46% 30.08 in 10.0 mi SSW 5.8 mph - N/A   Clear
7:53 PM 75.9 °F - 63.0 °F 64% 30.09 in 10.0 mi SE 3.5 mph - N/A   Clear
8:53 PM 75.0 °F - 64.9 °F 71% 30.09 in 10.0 mi Calm Calm - N/A   Overcast
9:53 PM 75.0 °F - 62.1 °F 64% 30.09 in 10.0 mi Calm Calm - N/A   Mostly Cloudy
10:53 PM 77.0 °F - 59.0 °F 54% 30.08 in 10.0 mi SW 3.5 mph - N/A   Scattered Clouds
11:53 PM 77.0 °F - 60.1 °F 56% 30.08 in 10.0 mi South 5.8 mph - N/A   Partly Cloudy